User: anonymous
Location: Unspecified
(0.0000°N, 0.0000°E)
Time: 11:45:23
(UTC+00:00)
Language:

GEOEYE 1 - Orbit

View from above orbital plane
View from above orbital plane
View from above satellite
View from above satellite

Ground track
Ground track

The orbit data is extracted from the following two-line orbital elements,

1 33331U 08042A   14234.19298913  .00000199  00000-0  46877-4 0  6007
2 33331 098.1347 308.2869 0007991 258.4239 101.6076 14.64147130318376
Epoch (UTC): 22 August 2014 04:37:54
Eccentricity: 0.0007991
inclination: 98.1347°
perigee height: 674 km
apogee height: 685 km
right ascension of ascending node: 308.2869°
argument of perigee: 258.4239°
revolutions per day: 14.64147130
mean anomaly at epoch: 101.6076°
orbit number at epoch: 31837

The dashed part of the orbit path shows where the satellite is in the earth's shadow,  

DLR